Location: Gwatt
(46.7204°N, 7.6223°E)
Time: 16:56:52
(UTC+00:00)

deb Explorer IX - Pass Details

Date: 30 January 2021
Orbit: 537 x 1102 km, 38.8° (Epoch: 04 March)

Event Time Altitude Azimuth Distance (km) Brightness Sun altitude
Rises 15:43:07 0° 244° (WSW) 3,893 ? 6.2°
Reaches altitude 10° 15:46:07 10° 237° (WSW) 2,906 ? 5.8°
Maximum altitude 15:52:39 40° 171° (S) 1,451 ? 4.8°
Drops below altitude 10° 15:58:33 10° 105° (ESE) 2,626 ? 4.0°
Sets 16:01:08 0° 97° (E) 3,482 ? 3.6°
